Starlink 3515

operational
NORAD ID: 51738 Int'l Des: 2022-016 Owner: SPXS Country: US Constellation: starlink
LEOCIRCULAR

Starlink 3515について

説明を読み込み中...

リアルタイム位置

3D地球を読み込み中...

次回通過

高度履歴

Altitude vs Time

uPlot chart will show altitude changes over time

軌道要素

1 51738U 22016AA 25349.38003302 .00000690 00000-0 61417-4 0 9995
2 51738 53.2186 337.6018 0001474 90.0780 270.0381 15.08841910210831
Epoch: Dec 15, 2025 • Age: 27 hours

現在のステータス

高度 559.0 km
速度 7.58 km/s
衛星直下点 -52.56°S, 5.71°W
打ち上げ日 Feb 21, 2022
運用期間 3.8 years
タイプ internet

技術仕様

分類 Payload
質量 297.00 kg
乾燥質量 275.00 kg
総質量 297.00 kg
長さ 0.20 m
直径 2.80 m
スパン 9.00 m
形状 Box + pan
製造者 SPXS
バスタイプ Starlink
フェーズステータス In Orbit
所有者/国 SPXS/US

大規模コンステレーション

Loading constellations...